South International Falls, MN

9:03 PM CST on February 26, 2017 (GMT -0600)
Falls International

Weather History for KINL - April, 2013

Change the Weather History Date:

Wednesday, April 3, 2013

  Actual Average Record
Temperature  
Mean Temperature 21 °F 33 °F  
Max Temperature 42 °F 44 °F 74 °F (1910)
Min Temperature -1 °F 22 °F -14 °F (1954)
Degree Days  
Heating Degree Days 44 32  
Month to date heating degree days 138 98  
Since 1 July heating degree days 9207 8964  
Cooling Degree Days 0 0  
Month to date cooling degree days 0 0  
Year to date cooling degree days 0 0  
Moisture  
Dew Point 9 °F    
Average Humidity 59    
Maximum Humidity 86    
Minimum Humidity 32    
Precipitation  
Precipitation 0.00 in 0.04 in 0.79 in (1940)
Month to date precipitation 0.00 0.12  
Year to date precipitation 4.81 2.26  
Snow  
Snow 0.00 in 0.20 in 5.80 in (1982)
Month to date snowfall 0.0 0.8  
Since 1 July snowfall 85.0 65.2  
Snow Depth 21.00 in    
Sea Level Pressure  
Sea Level Pressure 30.19 in    
Wind  
Wind Speed 8 mph (South)    
Max Wind Speed 22 mph    
Max Gust Speed 32 mph    
Visibility 10 miles    
Events      
T = Trace of Precipitation, MM = Missing Value Source: NWS Daily Summary

Daily Weather History Graph

Daily Weather History Graph

Search for Another Location

Airport or City:

Trip Planner

Search our weather history database for the weather conditions in past years. The results will help you decide how hot, cold, wet, or windy it might be!

Date:

Astronomy

Apr. 03, 2013 Rise Set
Actual Time 6:46 AM CDT 7:47 PM CDT
Civil Twilight 6:14 AM CDT 8:19 PM CDT
Nautical Twilight 5:36 AM CDT 8:58 PM CDT
Astronomical Twilight 4:55 AM CDT 9:39 PM CDT
Moon 2:59 AM CDT (4/3) 12:30 PM CDT (4/3)
Length of Visible Light 14h 04m
Length of Day
13h 00m
Last Quarter, 44% of the Moon is Illuminated
Apr 3
Last Quarter
Apr 10
New
Apr 18
First Quarter
Apr 25
Full
May 2
Last Quarter

Hourly Weather History & Observations

Time (CDT) Temp. Windchill Dew Point Humidity Pressure Visibility Wind Dir Wind Speed Gust Speed Precip Events Conditions
12:55 AM 6.1 °F - 1.0 °F 80% 30.40 in 10.0 mi Calm Calm - N/A   Clear
1:55 AM 3.9 °F - -0.9 °F 80% 30.39 in 10.0 mi Calm Calm - N/A   Clear
2:55 AM 3.9 °F - -2.0 °F 76% 30.38 in 10.0 mi Calm Calm - N/A   Clear
3:55 AM -0.9 °F - -4.0 °F 87% 30.38 in 10.0 mi Calm Calm - N/A   Clear
4:55 AM -0.9 °F -8.9 °F -6.0 °F 79% 30.38 in 10.0 mi SE 3.5 mph - N/A   Clear
5:55 AM 6.1 °F -2.8 °F -2.0 °F 69% 30.37 in 10.0 mi SE 4.6 mph - N/A   Clear
6:55 AM 5.0 °F -5.6 °F -2.9 °F 70% 30.35 in 10.0 mi SE 5.8 mph - N/A   Clear
7:55 AM 10.0 °F 1.8 °F -2.0 °F 58% 30.35 in 10.0 mi SSE 4.6 mph - N/A   Clear
8:55 AM 19.9 °F 13.4 °F 1.9 °F 46% 30.33 in 10.0 mi SSE 4.6 mph - N/A   Clear
9:55 AM 27.0 °F 21.6 °F 1.9 °F 34% 30.30 in 10.0 mi Variable 4.6 mph 16.1 mph N/A   Clear
10:55 AM 30.0 °F 21.1 °F 5.0 °F 35% 30.28 in 10.0 mi South 10.4 mph 20.7 mph N/A   Clear
11:55 AM 33.1 °F 22.6 °F 10.0 °F 38% 30.25 in 10.0 mi SSW 16.1 mph 24.2 mph N/A   Overcast
12:55 PM 35.1 °F 26.4 °F 9.0 °F 34% 30.20 in 10.0 mi South 12.7 mph 21.9 mph N/A   Mostly Cloudy
1:55 PM 36.0 °F 28.0 °F 10.0 °F 34% 30.15 in 10.0 mi South 11.5 mph 24.2 mph N/A   Overcast
2:55 PM 39.0 °F 32.8 °F 12.9 °F 34% 30.10 in 10.0 mi South 9.2 mph 17.3 mph N/A   Clear
3:55 PM 41.0 °F 33.9 °F 14.0 °F 33% 30.05 in 10.0 mi South 12.7 mph 24.2 mph N/A   Partly Cloudy
4:55 PM 41.0 °F 33.1 °F 17.1 °F 38% 30.02 in 10.0 mi South 15.0 mph 28.8 mph N/A   Mostly Cloudy
5:55 PM 41.0 °F 35.2 °F 18.0 °F 40% 29.96 in 10.0 mi South 9.2 mph 23.0 mph N/A   Overcast
6:55 PM 39.9 °F 33.4 °F 21.0 °F 47% 29.96 in 10.0 mi SSW 10.4 mph 21.9 mph N/A   Overcast
7:55 PM 39.0 °F 30.6 °F 24.1 °F 55% 29.97 in 10.0 mi SW 15.0 mph 26.5 mph N/A   Overcast
8:55 PM 37.9 °F 30.0 °F 26.1 °F 62% 29.95 in 10.0 mi SSW 12.7 mph - N/A   Mostly Cloudy
9:55 PM 37.9 °F 32.1 °F 27.0 °F 65% 29.95 in 10.0 mi SW 8.1 mph - N/A   Overcast
10:55 PM 37.0 °F 33.3 °F 27.0 °F 67% 29.95 in 10.0 mi WSW 4.6 mph - N/A   Overcast
11:55 PM 37.0 °F 29.8 °F 28.9 °F 73% 29.95 in 10.0 mi West 10.4 mph - N/A   Overcast